KC7O Weather Reports


Display with metric or nautical units.
time (UTC)temp
F
wind
direction
speed
MPH
gust
MPH
rain 1hr
in
rain 24hr
in
rain mn
in
humidity
%
barometer
mb
20260509035858 64 164 0.0 0.0 0.00 0.00 0.00 81 1012.3
20260509035401 64 164 0.0 0.0 0.00 0.00 0.00 81 1012.3
20260509034907 64 165 0.0 0.0 0.00 0.00 0.00 81 1012.3
20260509034412 65 164 0.0 0.0 0.00 0.00 0.00 80 1012.2
20260509033907 65 164 0.0 0.0 0.00 0.00 0.00 80 1012.2
20260509033353 65 165 0.0 1.0 0.00 0.00 0.00 80 1012.2
20260509032919 65 234 0.0 1.0 0.00 0.00 0.00 79 1012.1
20260509032425 66 234 0.0 1.0 0.00 0.00 0.00 79 1012.0
20260509031910 66 236 0.0 1.0 0.00 0.00 0.00 79 1012.0
20260509031415 66 220 0.0 1.0 0.00 0.00 0.00 78 1011.9
20260509030922 66 228 0.0 1.0 0.00 0.00 0.00 78 1011.9
20260509030425 66 206 0.0 1.0 0.00 0.00 0.00 77 1011.8
20260509025930 67 189 0.0 1.0 0.00 0.00 0.00 77 1011.7
20260509025355 67 231 0.0 2.0 0.00 0.00 0.00 76 1011.7
20260509024859 67 229 0.0 2.0 0.00 0.00 0.00 76 1011.7
20260509024404 67 245 0.0 2.0 0.00 0.00 0.00 75 1011.7
20260509023909 68 203 0.0 1.0 0.00 0.00 0.00 75 1011.7
20260509023353 68 158 0.0 2.0 0.00 0.00 0.00 74 1011.7
20260509022919 68 233 0.0 2.0 0.00 0.00 0.00 74 1011.6
20260509022402 69 195 0.0 3.0 0.00 0.00 0.00 73 1011.7
20260509021909 69 231 0.0 4.0 0.00 0.00 0.00 73 1011.6
20260509021356 69 221 0.0 4.0 0.00 0.00 0.00 72 1011.5
20260509020904 70 248 1.0 4.0 0.00 0.00 0.00 71 1011.5
20260509020409 70 262 0.0 3.0 0.00 0.00 0.00 70 1011.3
20260509015855 71 200 0.0 3.0 0.00 0.00 0.00 70 1011.4
20260509015401 71 201 1.0 3.0 0.00 0.00 0.00 68 1011.4
20260509014906 72 212 1.0 4.0 0.00 0.00 0.00 68 1011.3
20260509013906 73 178 1.0 4.0 0.00 0.00 0.00 66 1011.3
20260509012855 74 235 1.0 4.0 0.00 0.00 0.00 65 1011.5
20260509012403 74 244 1.0 4.0 0.00 0.00 0.00 64 1011.4
20260509011929 75 252 1.0 3.0 0.00 0.00 0.00 63 1011.3
20260509011359 75 270 1.0 5.0 0.00 0.00 0.00 62 1011.3
20260509010904 76 188 1.0 5.0 0.00 0.00 0.00 62 1011.3
20260509010410 76 205 1.0 3.0 0.00 0.00 0.00 62 1011.2
20260509005914 76 198 1.0 4.0 0.00 0.00 0.00 62 1011.2
20260509005357 76 257 2.0 4.0 0.00 0.00 0.00 61 1011.2
20260509004418 77 173 2.0 4.0 0.00 0.00 0.00 61 1011.2
20260509003902 77 248 2.0 4.0 0.00 0.00 0.00 61 1011.3
20260509003406 77 275 2.0 4.0 0.00 0.00 0.00 60 1011.2
20260509002933 78 171 2.0 4.0 0.00 0.00 0.00 60 1011.3
20260509001856 78 217 2.0 5.0 0.00 0.00 0.00 60 1011.1
20260509001359 77 153 2.0 5.0 0.00 0.00 0.00 60 1011.1
20260509000904 78 172 2.0 5.0 0.00 0.00 0.00 60 1011.2
20260509000352 78 153 2.0 6.0 0.00 0.00 0.00 60 1011.2
20260508235856 78 148 2.0 7.0 0.00 0.00 0.00 60 1011.2
20260508234406 78 202 2.0 4.0 0.00 0.00 0.00 60 1011.2
20260508233851 78 262 2.0 5.0 0.00 0.00 0.00 60 1011.3
20260508233416 78 257 1.0 6.0 0.00 0.00 0.00 61 1011.4
20260508232900 78 136 1.0 7.0 0.00 0.00 0.00 59 1011.3
20260508232405 78 239 2.0 7.0 0.00 0.00 0.00 59 1011.4
20260508231910 79 202 2.0 8.0 0.00 0.00 0.00 59 1011.4
20260508231354 79 195 3.0 8.0 0.00 0.00 0.00 58 1011.5
20260508230900 79 222 1.0 6.0 0.00 0.00 0.00 59 1011.6
20260508230404 79 156 2.0 6.0 0.00 0.00 0.00 59 1011.6
20260508225931 79 191 2.0 5.0 0.00 0.00 0.00 58 1011.7
20260508225353 79 209 2.0 5.0 0.00 0.00 0.00 58 1011.8
20260508224901 79 283 2.0 5.0 0.00 0.00 0.00 59 1011.9
20260508224425 79 160 1.0 4.0 0.00 0.00 0.00 59 1011.9
20260508223853 79 210 1.0 6.0 0.00 0.00 0.00 58 1011.9
20260508223359 79 164 3.0 6.0 0.00 0.00 0.00 59 1012.0
20260508222903 79 262 2.0 5.0 0.00 0.00 0.00 59 1012.0
20260508222409 79 166 2.0 7.0 0.00 0.00 0.00 59 1012.0
20260508221855 79 145 2.0 7.0 0.00 0.00 0.00 59 1012.2
20260508221419 79 166 2.0 7.0 0.00 0.00 0.00 58 1012.2
20260508220904 79 259 2.0 6.0 0.00 0.00 0.00 58 1012.3
20260508220409 79 221 2.0 6.0 0.00 0.00 0.00 58 1012.4
20260508215913 79 248 1.0 5.0 0.00 0.00 0.00 59 1012.4
20260508215356 79 227 2.0 4.0 0.00 0.00 0.00 58 1012.4
20260508214902 78 242 2.0 5.0 0.00 0.00 0.00 59 1012.5
20260508214426 78 158 2.0 5.0 0.00 0.00 0.00 59 1012.5
20260508213854 79 262 2.0 5.0 0.00 0.00 0.00 58 1012.6
20260508213419 79 176 3.0 5.0 0.00 0.00 0.00 58 1012.5
20260508212902 79 156 3.0 5.0 0.00 0.00 0.00 59 1012.6
20260508212426 78 122 2.0 6.0 0.00 0.00 0.00 59 1012.6
20260508211852 78 162 2.0 6.0 0.00 0.00 0.00 60 1012.6
20260508211356 77 255 1.0 5.0 0.00 0.00 0.00 61 1012.6
20260508210425 78 229 2.0 5.0 0.00 0.00 0.00 59 1012.8
20260508205909 78 245 2.0 5.0 0.00 0.00 0.00 60 1012.8
20260508205354 77 259 2.0 5.0 0.00 0.00 0.00 60 1012.8
20260508204858 77 176 2.0 5.0 0.00 0.00 0.00 61 1012.9
20260508204424 77 141 2.0 6.0 0.00 0.00 0.00 61 1012.9
20260508203927 78 274 2.0 6.0 0.00 0.00 0.00 60 1013.0
20260508203410 77 105 2.0 5.0 0.00 0.00 0.00 61 1013.1
20260508202854 77 165 3.0 6.0 0.00 0.00 0.00 61 1013.1
20260508202359 77 196 3.0 6.0 0.00 0.00 0.00 62 1013.2
20260508201903 76 221 4.0 6.0 0.00 0.00 0.00 62 1013.2
20260508201427 77 136 2.0 5.0 0.00 0.00 0.00 62 1013.3
20260508200855 77 169 3.0 5.0 0.00 0.00 0.00 62 1013.4
20260508200353 77 153 3.0 5.0 0.00 0.00 0.00 62 1013.4
20260508195915 76 248 2.0 4.0 0.00 0.00 0.00 64 1013.4
20260508195351 76 188 1.0 5.0 0.00 0.00 0.00 63 1013.4
20260508194857 75 155 2.0 5.0 0.00 0.00 0.00 64 1013.5
20260508194401 75 222 0.0 5.0 0.00 0.00 0.00 66 1013.5
20260508193907 74 148 2.0 5.0 0.00 0.00 0.00 66 1013.6
20260508193353 75 278 2.0 6.0 0.00 0.00 0.00 65 1013.7
20260508192402 74 169 2.0 5.0 0.00 0.00 0.00 65 1013.8
20260508191851 74 243 2.0 7.0 0.00 0.00 0.00 67 1013.8
20260508191358 74 148 2.0 7.0 0.00 0.00 0.00 66 1013.9
20260508190904 74 216 2.0 5.0 0.00 0.00 0.00 66 1014.0
20260508190408 73 184 2.0 5.0 0.00 0.00 0.00 67 1014.0
20260508185852 73 181 2.0 4.0 0.00 0.00 0.00 67 1014.1
20260508185417 72 167 2.0 5.0 0.00 0.00 0.00 69 1014.2
20260508184902 72 124 2.0 5.0 0.00 0.00 0.00 70 1014.2
20260508184408 71 295 1.0 4.0 0.00 0.00 0.00 70 1014.2
20260508183915 71 178 1.0 4.0 0.00 0.00 0.00 70 1014.2
20260508182858 71 149 2.0 6.0 0.00 0.00 0.00 72 1014.3
20260508182403 71 282 1.0 7.0 0.00 0.00 0.00 71 1014.4
20260508181906 70 158 2.0 7.0 0.00 0.00 0.00 71 1014.3
20260508181410 70 162 1.0 6.0 0.00 0.00 0.00 71 1014.4
20260508180901 70 147 3.0 6.0 0.00 0.00 0.00 72 1014.4
20260508180404 70 212 2.0 5.0 0.00 0.00 0.00 73 1014.4
20260508175908 70 163 2.0 5.0 0.00 0.00 0.00 73 1014.5
20260508175429 69 206 2.0 6.0 0.00 0.00 0.00 73 1014.5
20260508174854 69 153 3.0 6.0 0.00 0.00 0.00 73 1014.6
20260508174359 69 162 2.0 5.0 0.00 0.00 0.00 73 1014.7
20260508173905 68 169 3.0 5.0 0.00 0.00 0.00 74 1014.7
20260508173406 68 158 2.0 5.0 0.00 0.00 0.00 74 1014.7
20260508172851 69 224 2.0 5.0 0.00 0.00 0.00 74 1014.7
20260508172356 68 162 2.0 4.0 0.00 0.00 0.00 75 1014.7
20260508171904 67 146 1.0 3.0 0.00 0.00 0.00 75 1014.7
20260508171352 66 190 1.0 4.0 0.00 0.00 0.00 77 1014.7
20260508170917 67 147 3.0 4.0 0.00 0.00 0.00 75 1014.6
20260508170401 66 205 0.0 3.0 0.00 0.00 0.00 78 1014.6
20260508165907 66 136 1.0 4.0 0.00 0.00 0.00 78 1014.6
20260508165353 66 39 1.0 4.0 0.00 0.00 0.00 78 1014.7
20260508164858 65 136 1.0 4.0 0.00 0.00 0.00 79 1014.7
20260508164404 65 145 1.0 4.0 0.00 0.00 0.00 79 1014.7
20260508163908 65 148 1.0 3.0 0.00 0.00 0.00 80 1014.7
20260508163353 64 246 0.0 5.0 0.00 0.00 0.00 82 1014.7
20260508162856 63 152 1.0 5.0 0.00 0.00 0.00 82 1014.7
20260508162403 63 160 0.0 4.0 0.00 0.00 0.00 83 1014.7
20260508161851 63 124 2.0 4.0 0.00 0.00 0.00 83 1014.7
20260508161355 62 137 1.0 3.0 0.00 0.00 0.00 84 1014.7
20260508160901 62 133 0.0 3.0 0.00 0.00 0.00 86 1014.7
20260508160405 61 127 1.0 3.0 0.00 0.00 0.00 85 1014.7
20260508155853 61 212 0.0 3.0 0.00 0.00 0.00 86 1014.6
20260508155358 61 134 0.0 3.0 0.00 0.00 0.00 88 1014.6
20260508154904 60 162 1.0 2.0 0.00 0.00 0.00 89 1014.6
20260508154356 60 46 0.0 0.0 0.00 0.00 0.00 89 1014.7
20260508153902 59 32 0.0 0.0 0.00 0.00 0.00 89 1014.8
20260508153405 59 96 0.0 2.0 0.00 0.00 0.00 90 1014.8
20260508152412 59 150 1.0 2.0 0.00 0.00 0.00 90 1014.8
20260508151920 59 152 0.0 0.0 0.00 0.00 0.00 90 1014.8
20260508151402 58 141 0.0 0.0 0.00 0.00 0.00 90 1014.9
20260508150908 58 146 0.0 0.0 0.00 0.00 0.00 90 1014.9
20260508150356 58 148 0.0 0.0 0.00 0.00 0.00 90 1014.8
20260508145858 58 146 0.0 1.0 0.00 0.00 0.00 91 1014.9
20260508144858 58 151 1.0 2.0 0.00 0.00 0.00 91 1015.0
20260508144408 58 148 0.0 0.0 0.00 0.00 0.00 91 1015.0
20260508143356 58 129 1.0 2.0 0.00 0.00 0.00 91 1015.0
20260508142856 58 117 0.0 2.0 0.00 0.00 0.00 91 1014.9
20260508142400 58 89 0.0 2.0 0.00 0.00 0.00 91 1014.8
20260508141905 58 44 1.0 2.0 0.00 0.00 0.00 91 1014.8
20260508141409 58 42 0.0 1.0 0.00 0.00 0.00 91 1014.8
20260508140913 58 36 0.0 2.0 0.00 0.00 0.00 91 1014.8
20260508140354 58 72 0.0 3.0 0.00 0.00 0.00 92 1014.7
20260508135901 58 98 0.0 3.0 0.00 0.00 0.00 92 1014.7
20260508135405 58 153 0.0 1.0 0.00 0.00 0.00 92 1014.7
20260508134908 58 153 0.0 1.0 0.00 0.00 0.00 92 1014.7
20260508134352 58 153 0.0 0.0 0.00 0.00 0.00 92 1014.7
20260508133857 57 153 0.0 0.0 0.00 0.00 0.00 92 1014.7
20260508133404 58 153 0.0 1.0 0.00 0.00 0.00 92 1014.6
20260508132909 58 153 0.0 1.0 0.00 0.00 0.00 92 1014.5
20260508132354 57 143 0.0 1.0 0.00 0.00 0.00 92 1014.5
20260508131852 58 142 0.0 1.0 0.00 0.00 0.00 92 1014.5
20260508131418 58 224 1.0 1.0 0.00 0.00 0.00 92 1014.3
20260508130904 58 127 0.0 0.0 0.00 0.00 0.00 92 1014.3
20260508130402 58 127 0.0 0.0 0.00 0.00 0.00 92 1014.3
20260508125906 58 127 0.0 1.0 0.00 0.00 0.00 92 1014.3
20260508125412 58 127 0.0 1.0 0.00 0.00 0.00 92 1014.2
20260508124856 57 350 0.0 0.0 0.00 0.00 0.00 92 1014.2
20260508124422 58 350 0.0 0.0 0.00 0.00 0.00 92 1014.2
20260508123905 57 350 0.0 1.0 0.00 0.00 0.00 92 1014.2
20260508123410 57 350 0.0 1.0 0.00 0.00 0.00 92 1014.0
20260508122902 57 341 0.0 1.0 0.00 0.00 0.00 92 1014.0
20260508122423 58 333 0.0 0.0 0.00 0.00 0.00 92 1013.9
20260508121906 58 333 0.0 0.0 0.00 0.00 0.00 92 1014.0
20260508121412 58 297 0.0 1.0 0.00 0.00 0.00 92 1014.0
20260508120854 58 297 0.0 1.0 0.00 0.00 0.00 92 1014.0
20260508120400 58 297 0.0 1.0 0.00 0.00 0.00 92 1013.9
20260508115926 57 297 0.0 1.0 0.00 0.00 0.00 92 1013.9
20260508115351 58 297 0.0 1.0 0.00 0.00 0.00 92 1013.9
20260508114859 58 8 0.0 0.0 0.00 0.00 0.00 92 1013.9
20260508114404 58 8 0.0 0.0 0.00 0.00 0.00 92 1013.9
20260508113929 58 8 0.0 1.0 0.00 0.00 0.00 92 1013.9
20260508113355 57 8 0.0 1.0 0.00 0.00 0.00 92 1013.9
20260508112859 57 8 0.0 1.0 0.00 0.00 0.00 92 1013.9
20260508112405 58 8 0.0 1.0 0.00 0.00 0.00 92 1013.8
20260508111850 57 8 0.0 1.0 0.00 0.00 0.00 92 1013.8
20260508111355 57 8 0.0 2.0 0.00 0.00 0.00 92 1013.8
20260508110902 58 72 0.0 2.0 0.00 0.00 0.00 92 1013.7
20260508110350 58 98 0.0 2.0 0.00 0.00 0.00 92 1013.8
20260508105854 58 99 0.0 2.0 0.00 0.00 0.00 92 1013.8
20260508105401 58 32 0.0 0.0 0.00 0.00 0.00 92 1013.8
20260508104910 58 156 0.0 0.0 0.00 0.00 0.00 92 1013.7
20260508104354 58 156 0.0 0.0 0.00 0.00 0.00 92 1013.7
20260508103857 58 156 0.0 0.0 0.00 0.00 0.00 92 1013.7
20260508103403 58 147 0.0 0.0 0.00 0.00 0.00 92 1013.7
20260508102850 58 147 0.0 0.0 0.00 0.00 0.00 92 1013.8
20260508102355 58 147 0.0 0.0 0.00 0.00 0.00 92 1013.8
20260508101859 58 147 0.0 0.0 0.00 0.00 0.00 92 1013.9
20260508101404 58 147 0.0 0.0 0.00 0.00 0.00 92 1013.9
20260508100906 58 147 0.0 0.0 0.00 0.00 0.00 92 1013.9
20260508100352 58 147 0.0 0.0 0.00 0.00 0.00 92 1013.9
20260508095917 58 147 0.0 0.0 0.00 0.00 0.00 92 1013.8
20260508095401 58 147 0.0 0.0 0.00 0.00 0.00 92 1013.8
20260508094910 58 147 0.0 0.0 0.00 0.00 0.00 92 1013.8
20260508094354 58 147 0.0 0.0 0.00 0.00 0.00 92 1013.8
20260508093919 58 147 0.0 0.0 0.00 0.00 0.00 92 1013.8
20260508093403 58 147 0.0 0.0 0.00 0.00 0.00 92 1013.8
20260508092908 58 147 0.0 0.0 0.00 0.00 0.00 92 1013.9
20260508092355 58 145 0.0 0.0 0.00 0.00 0.00 92 1013.9
20260508091901 58 145 0.0 1.0 0.00 0.00 0.00 92 1013.9
20260508091406 58 144 0.0 1.0 0.00 0.00 0.00 92 1014.0
20260508090851 57 144 0.0 0.0 0.00 0.00 0.00 92 1014.0
20260508090356 57 144 0.0 0.0 0.00 0.00 0.00 92 1014.0
20260508085859 57 144 0.0 0.0 0.00 0.00 0.00 92 1014.0
20260508085405 57 144 0.0 0.0 0.00 0.00 0.00 92 1014.0
20260508084405 57 144 0.0 0.0 0.00 0.00 0.00 92 1014.1
20260508083909 57 144 0.0 0.0 0.00 0.00 0.00 91 1014.2
20260508083357 57 144 0.0 0.0 0.00 0.00 0.00 91 1014.3
20260508082901 57 144 0.0 0.0 0.00 0.00 0.00 91 1014.3
20260508082407 57 144 0.0 0.0 0.00 0.00 0.00 90 1014.3
20260508081912 57 144 0.0 0.0 0.00 0.00 0.00 90 1014.4
20260508081354 57 144 0.0 0.0 0.00 0.00 0.00 90 1014.4
20260508080858 57 144 0.0 0.0 0.00 0.00 0.00 90 1014.4
20260508080405 57 144 0.0 0.0 0.00 0.00 0.00 89 1014.6
20260508075911 57 144 0.0 0.0 0.00 0.00 0.00 89 1014.5
20260508075417 57 144 0.0 0.0 0.00 0.00 0.00 89 1014.6
20260508073900 58 144 0.0 0.0 0.00 0.00 0.00 88 1014.6
20260508073423 58 144 0.0 0.0 0.00 0.00 0.00 88 1014.6
20260508072852 58 144 0.0 0.0 0.00 0.00 0.00 88 1014.5
20260508072357 58 144 0.0 0.0 0.00 0.00 0.00 88 1014.5
20260508071900 58 144 0.0 0.0 0.00 0.00 0.00 88 1014.6
20260508071404 58 144 0.0 0.0 0.00 0.00 0.00 88 1014.6
20260508070850 58 144 0.0 0.0 0.00 0.00 0.00 87 1014.5
20260508070357 58 144 0.0 0.0 0.00 0.00 0.00 87 1014.5
20260508065901 58 144 0.0 0.0 0.00 0.00 0.00 87 1014.5
20260508065407 58 144 0.0 0.0 0.00 0.00 0.00 86 1014.5
20260508064853 59 144 0.0 0.0 0.00 0.00 0.00 86 1014.5
20260508064400 59 144 0.0 0.0 0.00 0.00 0.00 86 1014.4
20260508063904 59 144 0.0 0.0 0.00 0.00 0.00 86 1014.4
20260508063414 59 144 0.0 0.0 0.00 0.00 0.00 86 1014.4
20260508062919 59 144 0.0 0.0 0.00 0.00 0.00 85 1014.3
20260508062402 59 144 0.0 0.0 0.00 0.00 0.00 85 1014.3
20260508061908 60 144 0.0 0.0 0.00 0.00 0.00 84 1014.3
20260508061412 60 144 0.0 0.0 0.00 0.00 0.00 84 1014.3
20260508060856 60 144 0.0 0.0 0.00 0.00 0.00 84 1014.2
20260508060359 60 144 0.0 0.0 0.00 0.00 0.00 84 1014.3
20260508055925 60 144 0.0 0.0 0.00 0.00 0.00 83 1014.3
20260508055350 60 144 0.0 0.0 0.00 0.00 0.00 83 1014.3
20260508054915 60 144 0.0 0.0 0.00 0.00 0.00 82 1014.4
20260508054417 61 144 0.0 0.0 0.00 0.00 0.00 82 1014.4
20260508053901 61 144 0.0 0.0 0.00 0.00 0.00 82 1014.3
20260508053407 61 144 0.0 0.0 0.00 0.00 0.00 81 1014.4
20260508052852 61 144 0.0 0.0 0.00 0.00 0.00 81 1014.4
20260508052354 62 144 0.0 1.0 0.00 0.00 0.00 80 1014.3
20260508051858 62 144 0.0 1.0 0.00 0.00 0.00 80 1014.3
20260508051403 62 144 0.0 0.0 0.00 0.00 0.00 80 1014.4
20260508050853 62 144 0.0 0.0 0.00 0.00 0.00 79 1014.4
20260508050358 62 144 0.0 0.0 0.00 0.00 0.00 79 1014.3
20260508045903 63 144 0.0 0.0 0.00 0.00 0.00 78 1014.3
20260508045409 63 144 0.0 0.0 0.00 0.00 0.00 78 1014.3
20260508044854 63 144 0.0 0.0 0.00 0.00 0.00 77 1014.3
20260508044419 63 144 0.0 0.0 0.00 0.00 0.00 77 1014.2
20260508043904 63 144 0.0 0.0 0.00 0.00 0.00 77 1014.1
20260508043409 63 146 0.0 0.0 0.00 0.00 0.00 76 1014.1
20260508042853 64 150 0.0 0.0 0.00 0.00 0.00 75 1014.0
20260508042358 64 150 0.0 0.0 0.00 0.00 0.00 75 1013.9
20260508041902 64 150 0.0 0.0 0.00 0.00 0.00 74 1013.9
20260508041407 64 150 0.0 0.0 0.00 0.00 0.00 74 1013.8
20260508040855 64 150 0.0 0.0 0.00 0.00 0.00 73 1013.8
20260508040400 65 150 0.0 0.0 0.00 0.00 0.00 73 1013.7